Location: ???? ???? ?????
(31.2680°N, 31.7283°E)
Time: 09:56:05
(UTC+00:00)

Cosmos 2219 Rocket - Pass Details

Date: 13 July 2020
Orbit: 827 x 848 km, 71.0° (Epoch: 07 August)

Event Time Altitude Azimuth Distance (km) Brightness Sun altitude
Rises 18:16:30 0° 222° (SW) 3,352 5.4 -14.9°
Reaches altitude 10° 18:19:09 10° 232° (SW) 2,423 4.8 -15.3°
Maximum altitude 18:24:07 33° 296° (WNW) 1,354 4.0 -16.2°
Drops below altitude 10° 18:29:09 10° 360° (N) 2,442 5.1 -17.0°
Sets 18:31:50 0° 10° (N) 3,382 5.8 -17.4°
